GW0740 Weather Reports


Display with metric or nautical units.
time (UTC)temp
F
wind
direction
speed
MPH
gust
MPH
rain 1hr
in
rain 24hr
in
rain mn
in
humidity
%
barometer
mb
20260510142528 75 0 0.0 0.0 0.00 0.00 0.00 54 1014.5
20260510142034 75 0 0.0 0.0 0.00 0.00 0.00 53 1014.4
20260510141545 74 0 0.0 0.0 0.00 0.00 0.00 55 1014.4
20260510141031 73 0 0.0 0.0 0.00 0.00 0.00 60 1014.5
20260510140529 73 0 0.0 0.0 0.00 0.00 0.00 59 1014.4
20260510140045 72 0 0.0 0.0 0.00 0.00 0.00 61 1014.4
20260510135534 72 0 0.0 0.0 0.00 0.00 0.00 61 1014.4
20260510135034 71 0 0.0 0.0 0.00 0.00 0.00 65 1014.5
20260510134539 70 0 0.0 0.0 0.00 0.00 0.00 67 1014.4
20260510134034 70 0 0.0 0.0 0.00 0.00 0.00 69 1014.4
20260510133533 69 0 0.0 0.0 0.00 0.00 0.00 73 1014.4
20260510133042 68 0 0.0 0.0 0.00 0.00 0.00 73 1014.4
20260510132532 67 0 0.0 0.0 0.00 0.00 0.00 77 1014.5
20260510132034 66 0 0.0 0.0 0.00 0.00 0.00 80 1014.4
20260510131542 65 0 0.0 0.0 0.00 0.00 0.00 81 1014.4
20260510131032 64 0 0.0 0.0 0.00 0.00 0.00 83 1014.6
20260510130533 63 0 0.0 0.0 0.00 0.00 0.00 85 1014.6
20260510130040 62 0 0.0 0.0 0.00 0.00 0.00 87 1014.6
20260510125532 61 0 0.0 0.0 0.00 0.00 0.00 88 1014.6
20260510125033 60 0 0.0 0.0 0.00 0.00 0.00 88 1014.4
20260510124545 60 0 0.0 0.0 0.00 0.00 0.00 88 1014.3
20260510124034 59 0 0.0 0.0 0.00 0.00 0.00 87 1014.2
20260510123533 59 0 0.0 0.0 0.00 0.00 0.00 87 1014.2
20260510123043 58 0 0.0 0.0 0.00 0.00 0.00 86 1014.3
20260510122534 58 0 0.0 0.0 0.00 0.00 0.00 86 1014.2
20260510122033 57 0 0.0 0.0 0.00 0.00 0.00 86 1014.2
20260510121539 57 0 0.0 0.0 0.00 0.00 0.00 86 1014.1
20260510121036 56 0 0.0 0.0 0.00 0.00 0.00 86 1014.0
20260510120533 56 0 0.0 0.0 0.00 0.00 0.00 86 1013.7
20260510120038 55 0 0.0 0.0 0.00 0.00 0.00 87 1013.6
20260510115535 55 0 0.0 0.0 0.00 0.00 0.00 87 1013.5
20260510115033 54 0 0.0 0.0 0.00 0.00 0.00 87 1013.4
20260510114544 54 0 0.0 0.0 0.00 0.00 0.00 87 1013.5
20260510114033 54 0 0.0 0.0 0.00 0.00 0.00 87 1013.4
20260510113533 53 0 0.0 0.0 0.00 0.00 0.00 87 1013.4
20260510113045 53 0 0.0 0.0 0.00 0.00 0.00 88 1013.4
20260510112533 53 0 0.0 0.0 0.00 0.00 0.00 88 1013.3
20260510112035 53 0 0.0 0.0 0.00 0.00 0.00 88 1013.2
20260510111603 52 0 0.0 0.0 0.00 0.00 0.00 88 1013.2
20260510111032 52 0 0.0 0.0 0.00 0.00 0.00 88 1013.2
20260510110534 52 0 0.0 0.0 0.00 0.00 0.00 88 1013.1
20260510110043 52 0 0.0 0.0 0.00 0.00 0.00 88 1013.0
20260510105533 52 0 0.0 0.0 0.00 0.00 0.00 88 1013.0
20260510105034 52 0 0.0 0.0 0.00 0.00 0.00 88 1013.0
20260510104539 52 0 0.0 0.0 0.00 0.00 0.00 88 1013.0
20260510104033 52 0 0.0 0.0 0.00 0.00 0.00 89 1013.0
20260510103533 52 0 0.0 0.0 0.00 0.00 0.00 88 1012.9
20260510103047 52 0 0.0 0.0 0.00 0.00 0.00 88 1012.8
20260510102533 52 0 0.0 0.0 0.00 0.00 0.00 88 1012.7
20260510102032 52 0 0.0 0.0 0.00 0.00 0.00 89 1012.6
20260510101543 53 0 0.0 0.0 0.00 0.00 0.00 88 1012.4
20260510101033 53 0 0.0 0.0 0.00 0.00 0.00 88 1012.4
20260510100533 53 0 0.0 0.0 0.00 0.00 0.00 88 1012.3
20260510100043 53 0 0.0 0.0 0.00 0.00 0.00 88 1012.3
20260510095534 53 0 0.0 0.0 0.00 0.00 0.00 89 1012.2
20260510095034 53 0 0.0 0.0 0.00 0.00 0.00 89 1012.2
20260510094538 54 0 0.0 0.0 0.00 0.00 0.00 89 1012.2
20260510094033 54 0 0.0 0.0 0.00 0.00 0.00 88 1012.1
20260510093533 54 0 0.0 0.0 0.00 0.00 0.00 88 1012.2
20260510093102 54 0 0.0 0.0 0.00 0.00 0.00 88 1012.1
20260510092532 54 0 0.0 0.0 0.00 0.00 0.00 88 1012.1
20260510092033 54 0 0.0 0.0 0.00 0.00 0.00 88 1012.1
20260510091549 55 0 0.0 0.0 0.00 0.00 0.00 88 1012.1
20260510091033 55 0 0.0 0.0 0.00 0.00 0.00 88 1012.0
20260510090534 55 0 0.0 0.0 0.00 0.00 0.00 88 1012.0
20260510090054 55 0 0.0 0.0 0.00 0.00 0.00 88 1011.9
20260510085532 55 0 0.0 0.0 0.00 0.00 0.00 88 1011.7
20260510085032 55 0 0.0 0.0 0.00 0.00 0.00 88 1011.7
20260510084540 55 0 0.0 0.0 0.00 0.00 0.00 88 1011.6
20260510084033 56 0 0.0 0.0 0.00 0.00 0.00 88 1011.7
20260510083537 56 0 0.0 0.0 0.00 0.00 0.00 88 1011.7
20260510083041 56 0 0.0 0.0 0.00 0.00 0.00 88 1011.7
20260510082534 56 0 0.0 0.0 0.00 0.00 0.00 88 1011.7
20260510082033 56 0 0.0 0.0 0.00 0.00 0.00 88 1011.7
20260510081606 57 0 0.0 0.0 0.00 0.00 0.00 88 1011.6
20260510081032 57 0 0.0 0.0 0.00 0.00 0.00 88 1011.6
20260510080533 57 0 0.0 0.0 0.00 0.00 0.00 88 1011.6
20260510080044 57 0 0.0 0.0 0.00 0.00 0.00 88 1011.7
20260510075534 57 0 0.0 0.0 0.00 0.00 0.00 88 1011.5
20260510075033 58 0 0.0 0.0 0.00 0.00 0.00 88 1011.5
20260510074600 58 0 0.0 0.0 0.00 0.00 0.00 88 1011.5
20260510074033 58 0 0.0 0.0 0.00 0.00 0.00 88 1011.5
20260510073532 58 0 0.0 0.0 0.00 0.00 0.00 88 1011.5
20260510073044 58 0 0.0 0.0 0.00 0.00 0.00 88 1011.5
20260510072533 58 0 0.0 0.0 0.00 0.00 0.00 88 1011.4
20260510072034 58 0 0.0 0.0 0.00 0.00 0.00 88 1011.4
20260510071541 58 0 0.0 0.0 0.00 0.00 0.00 88 1011.5
20260510071033 59 0 0.0 0.0 0.00 0.00 0.00 88 1011.4
20260510070532 59 0 0.0 0.0 0.00 0.00 0.00 88 1011.3
20260510070042 59 0 0.0 0.0 0.00 0.00 0.00 88 1011.4
20260510065534 59 0 0.0 0.0 0.00 0.00 0.00 87 1011.3
20260510065033 59 0 0.0 0.0 0.00 0.00 0.00 87 1011.4
20260510064535 60 0 0.0 0.0 0.00 0.00 0.00 87 1011.4
20260510064034 60 0 0.0 0.0 0.00 0.00 0.00 87 1011.4
20260510063534 60 0 0.0 0.0 0.00 0.00 0.00 87 1011.4
20260510063044 60 0 0.0 0.0 0.00 0.00 0.00 87 1011.5
20260510062534 60 0 0.0 0.0 0.00 0.00 0.00 87 1011.4
20260510062033 60 0 0.0 0.0 0.00 0.00 0.00 87 1011.4
20260510061544 60 0 0.0 0.0 0.00 0.00 0.00 86 1011.4
20260510061033 60 0 0.0 0.0 0.00 0.00 0.00 86 1011.3
20260510060534 61 0 0.0 0.0 0.00 0.00 0.00 86 1011.4
20260510060041 61 0 0.0 0.0 0.00 0.00 0.00 85 1011.3
20260510055534 61 0 0.0 0.0 0.00 0.00 0.00 85 1011.3
20260510055034 61 0 0.0 0.0 0.00 0.00 0.00 85 1011.3
20260510054541 61 0 0.0 0.0 0.00 0.00 0.00 84 1011.3
20260510054032 62 0 0.0 0.0 0.00 0.00 0.00 84 1011.4
20260510053535 62 0 0.0 0.0 0.00 0.00 0.00 84 1011.4
20260510053041 62 0 0.0 0.0 0.00 0.00 0.00 84 1011.5
20260510052533 62 0 0.0 0.0 0.00 0.00 0.00 83 1011.4
20260510052033 62 0 0.0 0.0 0.00 0.00 0.00 83 1011.4
20260510051544 62 0 0.0 0.0 0.00 0.00 0.00 83 1011.4
20260510051033 62 0 0.0 0.0 0.00 0.00 0.00 83 1011.4
20260510050533 62 0 0.0 0.0 0.00 0.00 0.00 83 1011.4
20260510050045 62 0 0.0 0.0 0.00 0.00 0.00 83 1011.4
20260510045536 62 0 0.0 0.0 0.00 0.00 0.00 83 1011.4
20260510045034 62 0 0.0 0.0 0.00 0.00 0.00 83 1011.4
20260510044640 62 0 0.0 0.0 0.00 0.00 0.00 83 1011.4
20260510044033 62 0 0.0 0.0 0.00 0.00 0.00 83 1011.4
20260510043533 62 0 0.0 0.0 0.00 0.00 0.00 83 1011.3
20260510043038 62 0 0.0 0.0 0.00 0.00 0.00 82 1011.3
20260510042533 62 0 0.0 0.0 0.00 0.00 0.00 82 1011.2
20260510042033 62 0 0.0 0.0 0.00 0.00 0.00 82 1011.1
20260510041537 62 0 0.0 0.0 0.00 0.00 0.00 82 1011.3
20260510041034 62 0 0.0 0.0 0.00 0.00 0.00 82 1011.1
20260510040533 62 0 0.0 0.0 0.00 0.00 0.00 82 1011.1
20260510040047 62 0 0.0 0.0 0.00 0.00 0.00 81 1011.2
20260510035534 62 0 0.0 0.0 0.00 0.00 0.00 81 1011.1
20260510035034 62 0 0.0 0.0 0.00 0.00 0.00 81 1011.0
20260510034542 62 0 0.0 0.0 0.00 0.00 0.00 81 1011.0
20260510034036 63 0 0.0 0.0 0.00 0.00 0.00 80 1011.0
20260510033533 63 0 0.0 0.0 0.00 0.00 0.00 80 1011.0
20260510033044 63 0 0.0 0.0 0.00 0.00 0.00 80 1011.0
20260510032534 63 0 0.0 0.0 0.00 0.00 0.00 80 1011.1
20260510032034 63 0 0.0 0.0 0.00 0.00 0.00 80 1011.1
20260510031541 63 0 0.0 0.0 0.00 0.00 0.00 80 1011.0
20260510031033 63 0 0.0 0.0 0.00 0.00 0.00 79 1010.9
20260510030533 63 0 0.0 0.0 0.00 0.00 0.00 79 1010.9
20260510030041 63 0 0.0 0.0 0.00 0.00 0.00 79 1010.9
20260510025533 63 0 0.0 0.0 0.00 0.00 0.00 79 1010.9
20260510025033 63 0 0.0 0.0 0.00 0.00 0.00 79 1010.8
20260510024539 63 0 0.0 0.0 0.00 0.00 0.00 79 1010.7
20260510024032 63 0 0.0 0.0 0.00 0.00 0.00 79 1010.8
20260510023532 63 0 0.0 0.0 0.00 0.00 0.00 79 1010.7
20260510023039 63 0 0.0 0.0 0.00 0.00 0.00 80 1010.7
20260510022532 62 0 0.0 0.0 0.00 0.00 0.00 80 1010.6
20260510022033 62 0 0.0 0.0 0.00 0.00 0.00 79 1010.6
20260510021541 62 0 0.0 0.0 0.00 0.00 0.00 79 1010.5
20260510021032 62 0 0.0 0.0 0.00 0.00 0.00 80 1010.4
20260510020532 62 0 0.0 0.0 0.00 0.00 0.00 80 1010.3
20260510020050 62 0 0.0 0.0 0.00 0.00 0.00 79 1010.3
20260510015533 62 0 0.0 0.0 0.00 0.00 0.00 79 1010.2
20260510015033 63 0 0.0 0.0 0.00 0.00 0.00 79 1010.0
20260510014540 63 0 0.0 0.0 0.00 0.00 0.00 79 1010.0
20260510014032 63 0 0.0 0.0 0.00 0.00 0.00 79 1009.9
20260510013532 63 0 0.0 0.0 0.00 0.00 0.00 79 1009.8
20260510013036 63 0 0.0 0.0 0.00 0.00 0.00 78 1009.9
20260510012534 63 0 0.0 0.0 0.00 0.00 0.00 77 1009.8
20260510012033 63 0 0.0 0.0 0.00 0.00 0.00 77 1009.8
20260510011539 64 0 0.0 0.0 0.00 0.00 0.00 77 1009.7
20260510011032 64 0 0.0 0.0 0.00 0.00 0.00 76 1009.6
20260510010532 64 0 0.0 0.0 0.00 0.00 0.00 76 1009.5
20260510010046 64 0 0.0 0.0 0.00 0.00 0.00 75 1009.4
20260510005532 64 0 0.0 0.0 0.00 0.00 0.00 74 1009.5
20260510005032 65 0 0.0 0.0 0.00 0.00 0.00 74 1009.5
20260510004540 65 0 0.0 0.0 0.00 0.00 0.00 74 1009.4
20260510004032 65 0 0.0 0.0 0.00 0.00 0.00 73 1009.3
20260510003532 66 0 0.0 0.0 0.00 0.00 0.00 72 1009.3
20260510003049 66 0 0.0 0.0 0.00 0.00 0.00 72 1009.3
20260510002531 66 0 0.0 0.0 0.00 0.00 0.00 71 1009.2
20260510002033 67 0 0.0 0.0 0.00 0.00 0.00 70 1009.1
20260510001545 67 0 0.0 0.0 0.00 0.00 0.00 70 1009.0
20260510001034 68 0 0.0 0.0 0.00 0.00 0.00 70 1009.1
20260510000533 68 0 0.0 0.0 0.00 0.00 0.00 68 1009.1
20260510000040 69 0 0.0 0.0 0.00 0.00 0.00 65 1009.0
20260509235532 69 0 0.0 0.0 0.00 0.00 0.00 64 1008.9
20260509235032 70 0 0.0 0.0 0.00 0.00 0.00 63 1008.8
20260509234557 70 0 0.0 0.0 0.00 0.00 0.00 62 1008.8
20260509234035 70 0 0.0 0.0 0.00 0.00 0.00 61 1008.7
20260509233532 71 0 0.0 0.0 0.00 0.00 0.00 60 1008.7
20260509233040 71 0 0.0 0.0 0.00 0.00 0.00 61 1008.7
20260509232532 71 0 0.0 0.0 0.00 0.00 0.00 59 1008.8
20260509232031 72 0 0.0 0.0 0.00 0.00 0.00 58 1008.8
20260509231540 72 0 0.0 0.0 0.00 0.00 0.00 58 1008.8
20260509231032 72 0 0.0 0.0 0.00 0.00 0.00 58 1008.7
20260509230533 72 0 0.0 0.0 0.00 0.00 0.00 57 1008.8
20260509230045 72 0 0.0 0.0 0.00 0.00 0.00 57 1008.8
20260509225535 72 0 0.0 0.0 0.00 0.00 0.00 57 1008.7
20260509225032 72 0 0.0 0.0 0.00 0.00 0.00 58 1008.7
20260509224541 72 0 0.0 0.0 0.00 0.00 0.00 59 1008.7
20260509224034 72 0 0.0 0.0 0.00 0.00 0.00 59 1008.6
20260509223533 72 0 0.0 0.0 0.00 0.00 0.00 59 1008.6
20260509223039 73 0 0.0 0.0 0.00 0.00 0.00 59 1008.6
20260509222532 73 0 0.0 0.0 0.00 0.00 0.00 59 1008.6
20260509222035 72 0 0.0 0.0 0.00 0.00 0.00 59 1008.6
20260509221539 72 0 0.0 0.0 0.00 0.00 0.00 60 1008.7
20260509221031 73 0 0.0 0.0 0.00 0.00 0.00 58 1008.8
20260509220532 73 0 0.0 0.0 0.00 0.00 0.00 58 1008.7
20260509220040 73 0 0.0 0.0 0.00 0.00 0.00 57 1008.7
20260509215533 73 0 0.0 0.0 0.00 0.00 0.00 56 1008.7
20260509215033 74 0 0.0 0.0 0.00 0.00 0.00 56 1008.7
20260509214543 74 0 0.0 0.0 0.00 0.00 0.00 56 1008.5
20260509214036 74 0 0.0 0.0 0.00 0.00 0.00 54 1008.4
20260509213532 74 0 0.0 0.0 0.00 0.00 0.00 54 1008.4
20260509213050 74 0 0.0 0.0 0.00 0.00 0.00 55 1008.5
20260509212533 74 0 0.0 0.0 0.00 0.00 0.00 53 1008.5
20260509212032 74 0 0.0 0.0 0.00 0.00 0.00 52 1008.5
20260509211551 74 0 0.0 0.0 0.00 0.00 0.00 50 1008.5
20260509211035 74 0 0.0 4.0 0.00 0.00 0.00 51 1008.4
20260509210532 74 0 0.0 4.0 0.00 0.00 0.00 50 1008.3
20260509210044 74 180 0.0 4.0 0.00 0.00 0.00 48 1008.5
20260509205532 75 0 0.0 6.0 0.00 0.00 0.00 50 1008.3
20260509205032 75 0 0.0 6.0 0.00 0.00 0.00 49 1008.3
20260509204542 75 0 0.0 4.0 0.00 0.00 0.00 48 1008.2
20260509204033 76 0 0.0 4.0 0.00 0.00 0.00 48 1008.2
20260509203533 75 180 0.0 3.0 0.00 0.00 0.00 50 1008.2
20260509203103 75 0 0.0 4.0 0.00 0.00 0.00 48 1008.1
20260509202532 75 0 0.0 4.0 0.00 0.00 0.00 48 1008.0
20260509202036 75 0 0.0 4.0 0.00 0.00 0.00 49 1008.0
20260509201541 75 0 0.0 3.0 0.00 0.00 0.00 48 1008.0
20260509201032 75 0 0.0 3.0 0.00 0.00 0.00 50 1008.1
20260509200532 75 0 0.0 4.0 0.00 0.00 0.00 50 1008.2
20260509200047 75 0 0.0 4.0 0.00 0.00 0.00 49 1008.4
20260509195532 75 0 0.0 3.0 0.00 0.00 0.00 50 1008.4
20260509195032 75 0 0.0 3.0 0.00 0.00 0.00 51 1008.5
20260509194542 75 0 0.0 3.0 0.00 0.00 0.00 51 1008.6
20260509194032 75 0 0.0 6.0 0.00 0.00 0.00 52 1008.6
20260509193532 75 0 0.0 6.0 0.00 0.00 0.00 49 1008.7
20260509193046 75 180 0.0 4.0 0.00 0.00 0.00 52 1008.8
20260509192531 75 0 0.0 5.0 0.00 0.00 0.00 51 1009.0
20260509192031 75 0 0.0 5.0 0.00 0.00 0.00 50 1009.1
20260509191553 76 0 0.0 5.0 0.00 0.00 0.00 49 1009.1
20260509191032 76 180 0.0 5.0 0.00 0.00 0.00 48 1009.2
20260509190532 76 0 0.0 4.0 0.00 0.00 0.00 48 1009.2
20260509190041 76 0 0.0 3.0 0.00 0.00 0.00 48 1009.4
20260509185533 75 0 0.0 3.0 0.00 0.00 0.00 49 1009.4
20260509185033 74 0 0.0 3.0 0.00 0.00 0.00 50 1009.6
20260509184538 74 0 0.0 3.0 0.00 0.00 0.00 51 1009.6
20260509184032 74 0 0.0 3.0 0.00 0.00 0.00 49 1009.6
20260509183534 74 0 0.0 3.0 0.00 0.00 0.00 50 1009.6
20260509183047 75 0 0.0 6.0 0.00 0.00 0.00 49 1009.7
20260509182533 75 0 0.0 6.0 0.00 0.00 0.00 49 1009.6
20260509182032 75 0 1.0 6.0 0.00 0.00 0.00 50 1009.7
20260509181543 74 0 0.0 4.0 0.00 0.00 0.00 50 1009.7
20260509181032 73 0 0.0 4.0 0.00 0.00 0.00 57 1009.9
20260509180532 73 0 0.0 4.0 0.00 0.00 0.00 55 1010.0
20260509180042 73 0 0.0 4.0 0.00 0.00 0.00 55 1010.0
20260509175531 73 0 0.0 5.0 0.00 0.00 0.00 55 1010.1
20260509175033 74 0 0.0 5.0 0.00 0.00 0.00 52 1010.0
20260509174541 75 0 0.0 5.0 0.00 0.00 0.00 52 1010.0
20260509174033 75 347 0.0 4.0 0.00 0.00 0.00 54 1010.0
20260509173532 74 0 0.0 3.0 0.00 0.00 0.00 56 1010.0
20260509173038 74 0 0.0 3.0 0.00 0.00 0.00 54 1010.1
20260509172533 73 0 0.0 3.0 0.00 0.00 0.00 54 1010.1
20260509172033 74 0 0.0 3.0 0.00 0.00 0.00 54 1010.3
20260509171543 74 0 0.0 4.0 0.00 0.00 0.00 54 1010.2
20260509171031 74 0 0.0 4.0 0.00 0.00 0.00 54 1010.2
20260509170533 74 0 0.0 4.0 0.00 0.00 0.00 55 1010.3
20260509170046 74 0 0.0 5.0 0.00 0.00 0.00 54 1010.3
20260509165531 74 0 0.0 5.0 0.00 0.00 0.00 55 1010.5
20260509165031 74 0 0.0 3.0 0.00 0.00 0.00 55 1010.6
20260509164545 73 0 0.0 3.0 0.00 0.00 0.00 55 1010.7
20260509164034 73 0 0.0 4.0 0.00 0.00 0.00 55 1010.7
20260509163531 73 0 0.0 4.0 0.00 0.00 0.00 54 1010.8
20260509163057 73 180 0.0 5.0 0.00 0.00 0.00 55 1010.9
20260509162531 73 0 1.0 5.0 0.00 0.00 0.00 56 1010.9
20260509162032 72 0 0.0 6.0 0.00 0.00 0.00 57 1010.9
20260509161538 72 0 1.0 6.0 0.00 0.00 0.00 56 1010.8
20260509161033 72 342 0.0 5.0 0.00 0.00 0.00 58 1010.8
20260509160532 71 0 0.0 5.0 0.00 0.00 0.00 60 1010.7
20260509160044 70 0 0.0 6.0 0.00 0.00 0.00 60 1010.8
20260509155533 70 0 0.0 6.0 0.00 0.00 0.00 57 1011.0
20260509155034 70 0 0.0 4.0 0.00 0.00 0.00 58 1011.1
20260509154541 70 0 0.0 5.0 0.00 0.00 0.00 59 1011.1
20260509154032 70 180 0.0 5.0 0.00 0.00 0.00 58 1011.2
20260509153531 70 0 1.0 7.0 0.00 0.00 0.00 59 1011.4
20260509153044 70 0 0.0 7.0 0.00 0.00 0.00 59 1011.6
20260509152531 70 180 0.0 4.0 0.00 0.00 0.00 59 1011.5
20260509152031 69 0 0.0 4.0 0.00 0.00 0.00 61 1011.5
20260509151549 70 0 0.0 4.0 0.00 0.00 0.00 60 1011.5
20260509151032 70 91 0.0 5.0 0.00 0.00 0.00 61 1011.6
20260509150528 69 0 0.0 6.0 0.00 0.00 0.00 63 1011.8
20260509150040 69 0 0.0 7.0 0.00 0.00 0.00 64 1011.8
20260509145528 68 0 1.0 7.0 0.00 0.00 0.00 64 1011.8
20260509145032 68 0 0.0 7.0 0.00 0.00 0.00 66 1011.9
20260509144544 67 0 0.0 5.0 0.00 0.00 0.00 66 1011.9
20260509144032 67 0 0.0 4.0 0.00 0.00 0.00 69 1012.0
20260509143534 66 338 0.0 3.0 0.00 0.00 0.00 70 1012.2
20260509143044 65 0 0.0 3.0 0.00 0.00 0.00 70 1012.3